www.pogodaiklimat.ru

Погода и климат >> Архив погоды >> Канада >> Нунавут >> Арвиат


ПОГОДА в Арвиате

  • Прогноз погоды в Арвиате
  • Монитор погоды в Арвиате

АРХИВ ПОГОДЫ в Арвиате

Время (UTC), дата Ветер
(напр.,м/с)
 
Видим.   Явления Облачность Т
(С)
Тd
(С)
f
(%)
Тe
(С)
Тes
(С)
Комфортность P
(гПа)
Po
(гПа)
Тmin
(С)
Tmax
(С)
R
(мм)
R24
(мм)
S
(см)
12 13.01 З 16 н/о {осадки} н/о -21.4 -23.1 86 -38 -38 опасность
обморожения
1007.0 1005.7 -22.4 -8.1 1 49
15 13.01 СЗ 19 н/о н/о -23.5 -25.4 84 -42 -42 опасность
обморожения
1007.2 1005.9 1
18 13.01 СЗ 19 н/о {осадки} н/о -24.4 -26.4 83 -43 -43 опасность
обморожения
1008.3 1007.0 -24.4 -18.8 2
21 13.01 СЗ 17 н/о {осадки} н/о -25.0 -27.1 83 -44 -44 опасность
обморожения
1010.8 1009.5 0.5
00 14.01 СЗ 17 н/о {осадки} н/о -26.2 -28.4 82 -45 -45 опасность
обморожения
1015.0 1013.7 -26.2 -21.3 0.7
03 14.01 СЗ 15 н/о н/о -26.4 -28.7 81 -45 -45 опасность
обморожения
1017.7 1016.4 0.3
06 14.01 СЗ 14 н/о {осадки} н/о -27.1 -29.4 81 -45 -45 опасность
обморожения
1020.4 1019.1 -27.3 -18.8 0.8 18
09 14.01 СЗ 16 н/о н/о -28.0 -30.5 79 -47 -47 опасность
обморожения
1022.2 1020.8
12 14.01 СЗ 12 н/о н/о -29.4 -31.9 79 -47 -47 опасность
обморожения
1023.5 1022.1 -29.5 -18.8 9
15 14.01 СЗ 12 н/о н/о -31.6 -34.5 75 -50 -50 опасность
обморожения
1025.0 1023.6 0.2
18 14.01 СЗ 13 н/о н/о -32.9 -35.9 74 -52 -52 опасность
обморожения
1024.3 1022.9 -33.0 -27.1 0.2
21 14.01 СЗ 9 н/о н/о -33.5 -36.5 74 -51 -51 опасность
обморожения
1024.4 1023.0
00 15.01 СЗ 10 н/о н/о -34.6 -37.8 73 -53 -53 опасность
обморожения
1023.8 1022.4 -34.6 -29.4 0.2
03 15.01 СЗ 11 н/о н/о -35.5 -38.7 72 -55 -55 опасность
обморожения
1023.5 1022.1
06 15.01 С 10 н/о н/о -35.8 -39.2 71 -54 -54 опасность
обморожения
1023.6 1022.2 -35.8 -27.1 10
09 15.01 СЗ 10 н/о н/о -34.9 -38.2 72 -53 -53 опасность
обморожения
1023.4 1022.0
12 15.01 СЗ 11 н/о н/о -34.1 -37.2 73 -53 -53 опасность
обморожения
1022.7 1021.3 -35.8 -27.1 9
15 15.01 СЗ 11 н/о н/о -33.5 -36.6 73 -52 -52 опасность
обморожения
1022.8 1021.4
18 15.01 СЗ 11 н/о н/о -33.2 -36.3 74 -52 -52 опасность
обморожения
1022.7 1021.3 -35.8 -33.2
21 15.01 СЗ 10 н/о н/о -32.6 -35.6 74 -50 -50 опасность
обморожения
1021.8 1020.4
00 16.01 СЗ 9 н/о н/о -32.0 -35.0 75 -49 -49 опасность
обморожения
1021.2 1019.8 -35.8 -32.0
03 16.01 СЗ 9 н/о н/о -31.6 -34.4 76 -48 -48 опасность
обморожения
1020.0 1018.6
06 16.01 СЗ 8 н/о н/о -29.2 -31.8 78 -44 -44 опасность
обморожения
1017.7 1016.3 -35.8 -29.2 18
09 16.01 СЗ 8 н/о н/о -30.7 -33.4 77 -46 -46 опасность
обморожения
1016.4 1015.0
12 16.01 СЗ 8 н/о н/о -32.1 -35.0 75 -48 -48 опасность
обморожения
1015.2 1013.8 -32.2 -29.2 9
15 16.01 СЗ 7 н/о н/о -32.1 -35.0 75 -47 -47 опасность
обморожения
1014.2 1012.8
18 16.01 СЗ 8 н/о н/о -33.0 -36.0 74 -49 -49 опасность
обморожения
1013.9 1012.5 -33.2 -28.1
21 16.01 СЗ 9 н/о {осадки} н/о -32.7 -35.6 75 -50 -50 опасность
обморожения
1013.5 1012.1 0.2
00 17.01 СЗ 10 н/о {осадки} н/о -33.4 -36.5 74 -51 -51 опасность
обморожения
1013.5 1012.1 -33.4 -31.9 0.2
03 17.01 СЗ 8 н/о н/о -34.7 -37.9 72 -52 -52 опасность
обморожения
1013.3 1011.9
06 17.01 СЗ 7 н/о н/о -34.4 -37.6 73 -50 -50 опасность
обморожения
1012.9 1011.5 -35.0 -28.1 0
09 17.01 СЗ 7 н/о н/о -31.6 -34.5 75 -47 -47 опасность
обморожения
1012.1 1010.7
12 17.01 СЗ 7 н/о н/о -30.5 -33.3 76 -45 -45 опасность
обморожения
1012.6 1011.2 -35.0 -28.1 9
15 17.01 С 7 н/о н/о -31.9 -34.8 75 -47 -47 опасность
обморожения
1013.6 1012.2
18 17.01 С 9 н/о н/о -34.6 -37.9 72 -52 -52 опасность
обморожения
1015.1 1013.7 -35.0 -30.4
21 17.01 С 8 н/о н/о -36.5 -39.9 71 -54 -54 опасность
обморожения
1017.2 1015.8 0.2
00 18.01 СЗ 7 н/о н/о -37.2 -40.6 70 -54 -54 опасность
обморожения
1019.5 1018.1 -37.2 -30.5 0.2
03 18.01 СЗ 9 н/о н/о -37.2 -40.7 70 -55 -55 опасность
обморожения
1020.6 1019.2
06 18.01 СЗ 8 н/о н/о -37.2 -40.7 70 -55 -55 опасность
обморожения
1020.8 1019.4 -37.6 -30.4 20
09 18.01 СЗ 8 н/о н/о -36.9 -40.4 70 -55 -55 опасность
обморожения
1021.7 1020.3
12 18.01 СЗ 6 н/о н/о -37.6 -41.2 69 -53 -53 опасность
обморожения
1022.6 1021.2 -37.6 -30.4 9
15 18.01 СЗ 8 н/о н/о -38.2 -41.8 69 -56 -56 опасность
обморожения
1023.2 1021.8
18 18.01 СЗ 7 н/о н/о -38.0 -41.6 69 -55 -55 опасность
обморожения
1024.5 1023.1 -38.5 -36.4
21 18.01 С 8 н/о н/о -37.9 -41.5 69 -55 -55 опасность
обморожения
1026.1 1024.7
00 19.01 С 7 н/о н/о -38.9 -42.6 68 -56 -56 опасность
обморожения
1028.3 1026.9 -39.0 -37.3
03 19.01 СЗ 6 н/о н/о -39.4 -43.2 67 -56 -56 опасность
обморожения
1029.5 1028.1
06 19.01 СЗ 9 н/о н/о -39.1 -42.8 68 -58 -58 опасность
обморожения
1030.4 1029.0 -39.6 -36.4 9
09 19.01 СЗ 8 н/о н/о -38.4 -42.1 68 -56 -56 опасность
обморожения
1030.9 1029.5
12 19.01 СЗ 7 н/о н/о -37.1 -40.6 70 -54 -54 опасность
обморожения
1030.2 1028.8 -39.6 -36.4 9
15 19.01 З 7 н/о н/о -34.7 -37.9 72 -51 -51 опасность
обморожения
1028.9 1027.5
18 19.01 З 8 н/о н/о -30.2 -33.0 76 -46 -46 опасность
обморожения
1025.1 1023.7 -39.6 -30.2
21 19.01 З 11 н/о н/о -24.5 -26.7 82 -40 -40 опасность
обморожения
1022.2 1020.8
00 20.01 СЗ 13 н/о {осадки} н/о -23.3 -25.3 84 -40 -40 опасность
обморожения
1020.8 1019.4 -39.1 -23.1 0.4
03 20.01 СЗ 15 н/о н/о -24.2 -26.3 83 -42 -42 опасность
обморожения
1019.2 1017.8 0.6
06 20.01 СЗ 13 н/о {осадки} н/о -23.2 -25.2 84 -40 -40 опасность
обморожения
1018.9 1017.6 -39.1 -22.7 0.8 3

 

Местоположение метеостанции Арвиат (Нунавут, Канада): широта 61.10 долгота -94.06 высота над уровнем моря 10 м.

В архиве по умолчанию представлена погода в Арвиате за последнюю неделю. Архивные данные за месяц целиком и за предыдущие месяцы, начиная с января 2011 года, Вы можете получить, выбрав интересующий диапазон дат из раскрывающегося списка и нажав кнопку "Ввод!".


*Определитесь, кто Вы:
робот инопланетянин человек

Внимание! Время в таблицах - всемирное. Для получения местного времени необходимо прибавить поправку, которая равна -6 ч.

Смотрите также архив погоды в соседних городах и на ближайших метеорологических станциях:

Погода в Аэропорту Арвиат (Нунавут, Канада) (1 км)
Погода в Ранкин-Инлете (Нунавут, Канада) (217 км)
Погода в Черчилле (Манитоба, Канада) (265 км)
Погода в Тадоул Лейк (Манитоба, Канада) (362 км)
Погода в Бейкер-Лейке (Нунавут, Канада) (370 км)
Погода в Бейкер Лейк (Нунавут, Канада) (372 км)
Погода в Ки Лейк 2 (Саскачеван, Канада) (462 км)
Погода в Гилламе (Манитоба, Канада) (530 км)
Погода в Глеичене (Альберта, Канада) (567 км)
Погода в Вейджер Бэй (Нунавут, Канада) (579 км)

Пояснения к столбцам:

Ветер - указаны скорость ветра в м/с - средняя за 10 мин, порывы в срок и между сроками (в фигурных скобках) и направление, откуда дует ветер: С - северный, СВ - северо-восточный, В - восточный, ЮВ - юго-восточный, Ю - южный, ЮЗ - юго-западный, З - западный, СЗ - северо-западный.
Видимость - горизонтальная дальность видимости в метрах или километрах. При видимости от 1 до 10 км при отсутствии осадков обычно наблюдается дымка, при ухудшении видимости до 1 км и менее - туман. В сухую погоду видимость может ухудшаться дымом, пылью или мглою.
Явления - указаны атмосферные явления, наблюдавшиеся в срок или в последний час перед сроком; фигурными скобками обозначены явления, наблюдавшиеся между сроками (за 1-3 часа до срока); квадратными скобками обозначены град или гололедные отложения с указанием их диаметра в мм.
Облачность - указаны через наклонную черту общая и нижняя облачность в баллах и высота нижней границы облаков в метрах; квадратными скобками обозначены формы облаков: Ci - перистые, Cs - перисто-слоистые, Cc - перисто-кучевые, Ac - высококучевые, As - высокослоистые, Sc - слоисто-кучевые, Ns - слоисто-дождевые, Cu - кучевые, Cb - кучево-дождевые. Подробнее классификацию облаков см. в Атласе облаков (PDF).
T - Температура воздуха - температура, измеренная на высоте 2 м над землей.
Td - Температура точки росы - температура, при понижении до которой содержащийся в воздухе водяной пар достигнет насыщения.
f - Относительная влажность воздуха - влажноcть воздуха, измеренная на высоте 2 м над землей.
Te - Эффективная температура - температура, которую ощущает одетый по сезону человек в тени. Характеристика душности погоды. При расчете учитывается влияние влажности воздуха и скорости ветра на теплоощущения человека.
Tes - Эффективная температура на солнце - температура, которую ощущает человек, с поправкой на солнечный нагрев. Характеристика знойности погоды. Зависит от высоты солнца над горизонтом, облачности и скорости ветра. Ночью, в пасмурную погоду, а также при ветре 12 м/с и более поправка равна нулю.
P - Атмосферное давление - приведенное к уровню моря атмосферное давление.
Po - Атмосферное давление - измеренное на уровне метеостанции атмосферное давление.
Tmin - Минимальная температура - минимум температуры воздуха на высоте 2 м над землей.
Tmax - Максимальная температура - максимум температуры воздуха на высоте 2 м над землей.
R - Количество осадков - Количество выпавших осадков за период времени, мм. При наведении курсора мыши на число - период времени, за который выпало указанное количество осадков.
R24 - Количество осадков - Количество выпавших осадков за 24 часа, мм.
S - Снежный покров - Высота снежного покрова, см. При наведении курсора мыши на число - состояние снежного покрова и степень покрытия местности в баллах.